Estación de Las Viñas
Ultimos registro cada 15 minutos 51
| N° | Estación | Fecha / Hora | Temperatura | Humedad | Lluvia | Velocidad | Dirección | Radiación | Presion |
| 51 | Las Viñas | 02-09-2026 12:30 | 12,6 | 85 | 0 | 1,8 | 21 | 200 | 1019,5 |
| 50 | Las Viñas | 02-09-2026 12:15 | 12,8 | 84 | 0 | 0,9 | 336 | 410 | 1019,5 |
| 49 | Las Viñas | 02-09-2026 12:00 | 12,3 | 80 | 0 | 1,3 | 6 | 798 | 1019,5 |
| 48 | Las Viñas | 02-09-2026 11:45 | 11,7 | 80 | 0 | 0,9 | 11 | 186 | 1019,3 |
| 47 | Las Viñas | 02-09-2026 11:30 | 11,3 | 77 | 0 | 0,9 | 350 | 255 | 1019,4 |
| 46 | Las Viñas | 02-09-2026 11:15 | 10,9 | 76 | 0 | 1,3 | 322 | 360 | 1019,5 |
| 45 | Las Viñas | 02-09-2026 11:00 | 10,6 | 75 | 0 | 0,9 | 12 | 167 | 1019,2 |
| 44 | Las Viñas | 02-09-2026 10:45 | 10,3 | 75 | 0 | 0,9 | 5 | 116 | 1019,3 |
| 43 | Las Viñas | 02-09-2026 10:30 | 10 | 75 | 0 | 0,9 | 20 | 186 | 1019,3 |
| 42 | Las Viñas | 02-09-2026 10:15 | 9,8 | 75 | 0 | 1,8 | 347 | 95 | 1019,5 |
| 41 | Las Viñas | 02-09-2026 10:00 | 9,7 | 74 | 0 | 0,9 | 349 | 76 | 1019 |
| 40 | Las Viñas | 02-09-2026 09:45 | 9,6 | 74 | 0 | 1,3 | 5 | 109 | 1018,7 |
| 39 | Las Viñas | 02-09-2026 09:30 | 9,4 | 74 | 0 | 0,4 | 6 | 81 | 1018,8 |
| 38 | Las Viñas | 02-09-2026 09:15 | 9,3 | 74 | 0 | 1,3 | 4 | 84 | 1018,7 |
| 37 | Las Viñas | 02-09-2026 09:00 | 9,3 | 75 | 0 | 0,9 | 353 | 53 | 1018,8 |
| 36 | Las Viñas | 02-09-2026 08:45 | 9,3 | 75 | 0,2 | 0,9 | 2 | 47 | 1018,8 |
| 35 | Las Viñas | 02-09-2026 08:30 | 9,3 | 75 | 0 | 0,4 | 1 | 18 | 1018,5 |
| 34 | Las Viñas | 02-09-2026 08:15 | 9,3 | 76 | 0,6 | 0,4 | 24 | 14 | 1018,3 |
| 33 | Las Viñas | 02-09-2026 08:00 | 9,4 | 77 | 1,6 | 0,4 | 1 | 14 | 1018,3 |
| 32 | Las Viñas | 02-09-2026 07:45 | 9,9 | 77 | 1 | 0,9 | 41 | 7 | 1018,3 |
| 31 | Las Viñas | 02-09-2026 07:30 | 10,7 | 74 | 0,4 | 1,3 | 7 | 0 | 1018,1 |
| 30 | Las Viñas | 02-09-2026 07:15 | 10,7 | 75 | 0,2 | 0,9 | 349 | 0 | 1017,9 |
| 29 | Las Viñas | 02-09-2026 07:00 | 10,7 | 75 | 0,2 | 1,8 | 3 | 0 | 1018 |
| 28 | Las Viñas | 02-09-2026 06:45 | 10,7 | 75 | 0,2 | 0,9 | 338 | 0 | 1018 |
| 27 | Las Viñas | 02-09-2026 06:30 | 10,8 | 75 | 0 | 1,3 | 3 | 0 | 1017,9 |
| 26 | Las Viñas | 02-09-2026 06:15 | 10,8 | 76 | 0,2 | 2,2 | 344 | 0 | 1017,8 |
| 25 | Las Viñas | 02-09-2026 06:00 | 10,8 | 76 | 0,4 | 0,9 | 348 | 0 | 1017,4 |
| 24 | Las Viñas | 02-09-2026 05:45 | 10,8 | 76 | 0,2 | 1,8 | 345 | 0 | 1017,2 |
| 23 | Las Viñas | 02-09-2026 05:30 | 10,8 | 77 | 0,2 | 1,3 | 338 | 0 | 1017,3 |
| 22 | Las Viñas | 02-09-2026 05:15 | 10,8 | 77 | 0 | 0,9 | 16 | 0 | 1017 |
| 21 | Las Viñas | 02-09-2026 05:00 | 10,8 | 78 | 0,2 | 0,4 | 360 | 0 | 1017,3 |
| 20 | Las Viñas | 02-09-2026 04:45 | 10,8 | 78 | 0,2 | 0,9 | 355 | 0 | 1017,6 |
| 19 | Las Viñas | 02-09-2026 04:30 | 10,8 | 79 | 0,2 | 1,3 | 336 | 0 | 1017,6 |
| 18 | Las Viñas | 02-09-2026 04:15 | 10,8 | 80 | 1,6 | 1,8 | 350 | 0 | 1017,5 |
| 17 | Las Viñas | 02-09-2026 04:00 | 10,9 | 81 | 1 | 0,4 | 360 | 0 | 1017,8 |
| 16 | Las Viñas | 02-09-2026 03:45 | 10,9 | 82 | 1,2 | 0,9 | 335 | 0 | 1017,7 |
| 15 | Las Viñas | 02-09-2026 03:30 | 11 | 84 | 0,6 | 0,4 | 1 | 0 | 1017,3 |
| 14 | Las Viñas | 02-09-2026 03:15 | 11,2 | 85 | 1,2 | 0 | 358 | 0 | 1017,2 |
| 13 | Las Viñas | 02-09-2026 03:00 | 11,3 | 86 | 0,2 | 0,4 | 357 | 0 | 1017,7 |
| 12 | Las Viñas | 02-09-2026 02:45 | 11,5 | 87 | 0 | 0 | 340 | 0 | 1017,9 |
| 11 | Las Viñas | 02-09-2026 02:30 | 11,6 | 87 | 0 | 0,4 | 7 | 0 | 1018,1 |
| 10 | Las Viñas | 02-09-2026 02:15 | 11,7 | 87 | 0 | 0 | 347 | 0 | 1018 |
| 9 | Las Viñas | 02-09-2026 02:00 | 11,7 | 87 | 0 | 0,4 | 348 | 0 | 1018 |
| 8 | Las Viñas | 02-09-2026 01:45 | 11,6 | 87 | 0 | 0 | 351 | 0 | 1018 |
| 7 | Las Viñas | 02-09-2026 01:30 | 11,7 | 87 | 0 | 0,4 | 359 | 0 | 1017,9 |
| 6 | Las Viñas | 02-09-2026 01:15 | 11,7 | 87 | 0 | 1,3 | 347 | 0 | 1018,3 |
| 5 | Las Viñas | 02-09-2026 01:00 | 11,8 | 87 | 0 | 0,4 | 353 | 0 | 1018,3 |
| 4 | Las Viñas | 02-09-2026 00:45 | 11,8 | 87 | 0 | 0 | 356 | 0 | 1018,8 |
| 3 | Las Viñas | 02-09-2026 00:30 | 11,8 | 87 | 0 | 0 | 360 | 0 | 1019 |
| 2 | Las Viñas | 02-09-2026 00:15 | 11,8 | 87 | 0 | 0 | 360 | 0 | 1018,9 |
| 1 | Las Viñas | 02-09-2026 00:00 | 11,8 | 87 | 0 | 0,4 | 10 | 0 | 1018,5 |